Location: Fort Wayne
(41.1310°N, 85.1290°W)
Time: 00:18:25
(UTC-04:00)

Meteor 2-9 Rocket - Visible Passes

Search period start: 02 September 2014 00:00
Search period end: 12 September 2014 00:00
Orbit: 792 x 896 km, 81.3° (Epoch: 31 August)

Date Brightness Start Highest point End Pass type
(mag) Time Alt. Az. Time Alt. Az. Time Alt. Az.
02 Sep 4.6 22:08:17 10° SSW 22:13:30 59° WNW 22:18:49 10° N visible
03 Sep 4.4 21:54:13 10° SSW 21:59:29 68° W 22:04:52 10° N visible
04 Sep 4.2 21:40:11 10° SSW 21:45:28 77° W 21:50:53 10° N visible
05 Sep 7.8 06:39:14 10° NE 06:40:04 10° ENE 06:40:55 10° ENE visible
05 Sep 4.1 21:26:10 10° S 21:31:28 87° W 21:36:54 10° N visible
05 Sep 7.2 23:13:53 10° WNW 23:15:08 11° WNW 23:16:23 10° NW visible
06 Sep 4.0 21:12:10 10° S 21:17:29 82° E 21:22:55 10° NNE visible
06 Sep 7.1 22:58:51 10° W 23:01:01 12° WNW 23:03:14 10° NW visible
07 Sep 4.0 20:58:13 10° S 21:03:29 73° E 21:08:54 10° NNE visible
07 Sep 7.1 22:44:08 10° W 22:46:55 14° WNW 22:49:45 10° NNW visible
08 Sep 4.1 20:44:16 10° S 20:49:30 64° E 20:54:53 10° NNE visible
08 Sep 7.0 22:29:34 10° WSW 22:32:50 16° WNW 22:36:08 10° NNW visible
09 Sep 4.2 20:30:21 10° S 20:35:32 56° E 20:40:51 10° NNE visible
09 Sep 6.8 22:15:06 10° WSW 22:18:44 18° WNW 22:22:26 10° NNW visible
10 Sep 6.7 22:00:42 10° WSW 22:04:39 21° WNW 22:08:42 10° NNW visible
11 Sep 6.6 21:46:22 10° WSW 21:50:35 23° WNW 21:54:54 10° NNW visible
